Index of /ubuntu/dists

[ICO]NameLast modifiedSize

[PARENTDIR]Parent Directory  -
[DIR]trusty/2015-10-07 11:44 -
[DIR]xenial/2016-04-21 07:43 -
[DIR]trusty-backports/2017-12-15 09:49 -
[DIR]bionic/2018-04-26 23:38 -
[DIR]focal/2020-04-23 17:34 -
[DIR]trusty-security/2020-05-29 08:06 -
[DIR]trusty-updates/2020-05-29 08:08 -
[DIR]trusty-proposed/2020-06-06 06:57 -
[DIR]jammy/2022-04-21 17:16 -
[DIR]devel-backports/2022-05-02 21:10 -
[DIR]kinetic-backports/2022-05-02 21:10 -
[DIR]devel-security/2022-05-02 22:06 -
[DIR]kinetic-security/2022-05-02 22:06 -
[DIR]devel-updates/2022-05-02 22:06 -
[DIR]kinetic-updates/2022-05-02 22:06 -
[DIR]xenial-proposed/2022-09-30 01:24 -
[DIR]devel/2022-09-30 11:06 -
[DIR]kinetic/2022-09-30 11:06 -
[DIR]devel-proposed/2022-09-30 11:06 -
[DIR]kinetic-proposed/2022-09-30 11:06 -
[DIR]jammy-security/2022-09-30 11:07 -
[DIR]jammy-updates/2022-09-30 11:07 -
[DIR]jammy-proposed/2022-09-30 11:07 -
[DIR]jammy-backports/2022-09-30 11:07 -
[DIR]focal-security/2022-09-30 11:08 -
[DIR]focal-updates/2022-09-30 11:09 -
[DIR]focal-proposed/2022-09-30 11:10 -
[DIR]focal-backports/2022-09-30 11:10 -
[DIR]bionic-security/2022-09-30 11:11 -
[DIR]bionic-updates/2022-09-30 11:13 -
[DIR]bionic-proposed/2022-09-30 11:13 -
[DIR]bionic-backports/2022-09-30 11:13 -
[DIR]xenial-security/2022-09-30 11:14 -
[DIR]xenial-updates/2022-09-30 11:15 -
[DIR]xenial-backports/2022-09-30 11:15 -

Apache/2.4.18 (Ubuntu) Server at eu-west-1.ec2.archive.ubuntu.com Port 80